User: anonymous   Login
Location: Caltech
(34.1382°N, 118.1253°W)
Time: 05:56:26
(UTC-07:00)
Language:

Cosmos-2242 - Orbit

View from above orbital plane
View from above orbital plane
View from above satellite
View from above satellite

Ground track
Ground track

The orbit data is extracted from the following two-line orbital elements,

1 22626U 93024A   15089.07942224  .00002240  00000-0  24830-3 0  9997
2 22626 082.5198 085.1513 0017761 290.8118 069.1196 14.86776732185734
Epoch (UTC): 30 March 2015 01:54:22
Eccentricity: 0.0017761
inclination: 82.5198°
perigee height: 595 km
apogee height: 620 km
right ascension of ascending node: 85.1513°
argument of perigee: 290.8118°
revolutions per day: 14.86776732
mean anomaly at epoch: 69.1196°
orbit number at epoch: 18573

The dashed part of the orbit path shows where the satellite is in the earth's shadow,  

DLR